This demonstration page uses our WeatherBlox Daily Observations layout. Learn more.

Left ArrowRight Arrow

40.92945, -100.16068

Hourly Observations for May 13, 2021

Temp ( °F °C ) Dew Point ( °F °C ) Humidity (%) Winds ( mph kmh ) Pressure ( in mb ) Visibility ( mi km ) Precip ( " mm )
12:15 am 00:15 Clear 47 8.4 38 3.6 72 72 S 6 9 30.35 1028 10 16.0934 N/A
12:35 am 00:35 Partly Cloudy 45 7.2 38 3.4 77 77 SSE 6 9 30.36 1028 10 16.0934 N/A
12:55 am 00:55 Mostly Cloudy 45 7.1 38 3.6 79 79 SSE 6 9 30.37 1028 10 16.0934 N/A
1:15 am 01:15 Cloudy 47 8.3 39 4 75 75 S 7 11 30.36 1028 10 16.0934 N/A
1:35 am 01:35 Cloudy 49 9.5 39 4 69 69 S 12 19 30.34 1027 10 16.0934 N/A
1:55 am 01:55 Cloudy 50 10 39 3.7 65 65 S 14 22 30.32 1027 10 16.0934 N/A
2:15 am 02:15 Partly Cloudy 49 9.5 38 3.6 67 67 S 14 22 30.33 1027 10 16.0934 N/A
2:35 am 02:35 Mostly Cloudy 49 9.2 39 3.7 69 69 S 13 20 30.33 1027 10 16.0934 N/A
2:55 am 02:55 Cloudy 49 9.5 39 3.7 67 67 S 13 20 30.32 1027 10 16.0934 N/A
3:15 am 03:15 Cloudy 49 9.2 39 3.7 69 69 S 13 20 30.32 1027 10 16.0934 N/A
3:35 am 03:35 Cloudy 48 9.1 39 3.7 69 69 S 10 17 30.32 1027 10 16.0934 N/A
3:55 am 03:55 Cloudy 48 9.1 39 3.7 69 69 S 10 17 30.32 1027 10 16.0934 N/A
4:15 am 04:15 Cloudy 48 9 38 3.5 69 69 S 10 17 30.32 1027 10 16.0934 N/A
4:35 am 04:35 Cloudy 48 8.8 38 3.5 70 70 SSE 8 13 30.32 1027 10 16.0934 N/A
4:55 am 04:55 Cloudy 47 8.6 38 3.5 71 71 SSE 9 15 30.32 1027 10 16.0934 N/A
5:15 am 05:15 Cloudy 47 8.6 38 3.3 70 70 S 13 20 30.32 1027 10 16.0934 N/A
5:35 am 05:35 Mostly Cloudy 47 8.1 38 3.2 71 71 S 12 19 30.32 1027 10 16.0934 N/A
5:55 am 05:55 Mostly Cloudy 46 7.8 38 3.2 73 73 S 12 19 30.32 1027 10 16.0934 N/A
6:15 am 06:15 Mostly Cloudy 46 7.5 38 3.1 74 74 S 10 17 30.31 1027 10 16.0934 N/A
6:35 am 06:35 Cloudy 46 7.5 38 3.1 74 74 S 8 13 30.32 1027 10 16.0934 N/A
6:55 am 06:55 Cloudy 46 7.5 37 3 73 73 S 13 20 30.31 1027 10 16.0934 N/A
7:15 am 07:15 Partly Cloudy 45 7.3 37 3 74 74 S 15 24 30.32 1027 10 16.0934 N/A
7:35 am 07:35 Partly Cloudy 47 8.3 38 3.1 70 70 S 17 28 30.31 1026 10 16.0934 N/A
7:55 am 07:55 Partly Cloudy 48 8.7 38 3.2 69 69 S 18 30 30.3 1026 10 16.0934 N/A
8:15 am 08:15 Sunny 49 9.6 39 3.8 67 67 S 14 22 30.29 1026 10 16.0934 N/A
8:35 am 08:35 Sunny 52 11 40 4.2 63 63 S 15 24 30.28 1025 10 16.0934 N/A
8:55 am 08:55 Sunny 53 11.7 40 4.4 61 61 S 15 24 30.28 1025 10 16.0934 N/A
9:15 am 09:15 Sunny 55 12.6 40 4.6 58 58 S 17 28 30.27 1025 10 16.0934 N/A
9:35 am 09:35 Sunny 56 13.6 41 4.9 56 56 S 17 28 30.25 1024 10 16.0934 N/A
9:55 am 09:55 Sunny 58 14.3 41 5.1 54 54 S 15 24 30.24 1024 10 16.0934 N/A
10:15 am 10:15 Sunny 59 15 42 5.4 53 53 S 18 30 30.23 1024 10 16.0934 N/A
10:35 am 10:35 Sunny 61 15.9 42 5.6 51 51 S 18 30 30.21 1023 10 16.0934 N/A
10:55 am 10:55 Sunny 62 16.5 42 5.5 48 48 S 18 30 30.2 1023 10 16.0934 N/A
11:15 am 11:15 Sunny 64 17.5 42 5.6 46 46 S 18 30 30.18 1022 10 16.0934 N/A
11:35 am 11:35 Sunny 65 18.3 43 5.9 44 44 S 21 33 30.17 1022 10 16.0934 N/A
11:55 am 11:55 Sunny 65 18.6 42 5.8 43 43 S 16 26 30.16 1021 10 16.0934 N/A
12:15 pm 12:15 Sunny 66 19.1 43 6.1 43 43 S 17 28 30.15 1021 10 16.0934 N/A
12:35 pm 12:35 Sunny 67 19.6 43 6 41 41 S 18 30 30.13 1020 10 16.0934 N/A
12:55 pm 12:55 Sunny 68 20 43 6.3 41 41 S 21 33 30.12 1020 10 16.0934 N/A
1:15 pm 13:15 Sunny 69 20.4 44 6.4 40 40 S 20 31 30.11 1020 10 16.0934 N/A
1:35 pm 13:35 Sunny 69 20.7 44 6.6 40 40 S 24 39 30.1 1019 10 16.0934 N/A
1:55 pm 13:55 Partly Cloudy 69 20.6 43 6.1 39 39 S 18 30 30.09 1019 10 16.0934 N/A
2:15 pm 14:15 Partly Cloudy 71 21.4 44 6.5 38 38 S 24 39 30.08 1019 10 16.0934 N/A
2:35 pm 14:35 Partly Cloudy 71 21.9 44 6.6 37 37 S 21 33 30.07 1018 10 16.0934 N/A
2:55 pm 14:55 Sunny 72 22.1 43 6.1 36 36 S 21 33 30.05 1018 10 16.0934 N/A
3:15 pm 15:15 Sunny 71 21.6 43 6.2 37 37 SSW 17 28 30.05 1018 10 16.0934 N/A
3:35 pm 15:35 Sunny 72 22.4 44 6.4 36 36 S 24 39 30.03 1017 10 16.0934 N/A
3:55 pm 15:55 Sunny 73 22.6 43 6.3 35 35 S 18 30 30.02 1017 10 16.0934 N/A
4:15 pm 16:15 Sunny 72 22.2 45 7.2 38 38 S 21 33 30.01 1016 10 16.0934 N/A
4:35 pm 16:35 Sunny 72 22.2 44 6.9 37 37 S 24 39 29.99 1016 10 16.0934 N/A
4:55 pm 16:55 Sunny 73 22.5 45 7.1 37 37 S 23 37 29.98 1015 10 16.0934 N/A
5:15 pm 17:15 Partly Cloudy 73 22.6 45 7.1 37 37 S 24 39 29.97 1015 10 16.0934 N/A
5:35 pm 17:35 Partly Cloudy 71 21.6 44 6.9 39 39 S 26 43 29.97 1015 10 16.0934 N/A
5:55 pm 17:55 Partly Cloudy 70 21.2 45 7.3 41 41 S 21 33 29.96 1015 10 16.0934 N/A
6:15 pm 18:15 Sunny 70 21 45 7.2 41 41 S 20 31 29.96 1015 10 16.0934 N/A
6:35 pm 18:35 Sunny 69 20.5 46 7.5 43 43 SSE 24 39 29.96 1014 10 16.0934 N/A
6:55 pm 18:55 Sunny 68 20.1 45 7.4 44 44 S 22 35 29.95 1014 10 16.0934 N/A
7:15 pm 19:15 Sunny 67 19.7 46 7.5 45 45 S 28 44 29.93 1014 10 16.0934 N/A
7:35 pm 19:35 Sunny 67 19.2 46 7.5 47 47 SSE 22 35 29.94 1014 10 16.0934 N/A
7:55 pm 19:55 Partly Cloudy 66 19 46 7.6 48 48 SSE 16 26 29.96 1015 10 16.0934 N/A
8:15 pm 20:15 Cloudy 66 18.7 46 7.7 49 49 SSE 23 37 29.96 1015 10 16.0934 N/A
8:35 pm 20:35 Cloudy with Light Rain 62 16.7 49 9.7 64 64 SSE 15 24 29.99 1016 10 16.0934 N/A
8:55 pm 20:55 Cloudy with Nearby Thunderstorms 59 15.1 52 11 77 77 S 14 22 30.04 1017 7 11.26538 0.07 1.778
9:15 pm 21:15 Cloudy with Nearby Thunderstorms 58 14.6 53 11.5 82 82 S 29 46 30.05 1018 5 8.0467 0.07 1.778
9:35 pm 21:35 Cloudy with Heavy Rain 57 14 53 11.9 87 87 W 9 15 30.1 1019 4 6.43736 0.18 4.572
9:55 pm 21:55 Cloudy with Light Rain 59 15 51 10.8 76 76 SSE 9 15 30.09 1019 10 16.0934 0.24 6.096
10:15 pm 22:15 Cloudy 59 15.1 51 10.7 75 75 SSE 10 17 30.09 1019 10 16.0934 N/A
10:35 pm 22:35 Cloudy with Light Rain 58 14.3 52 11.1 81 81 SSE 18 30 30.09 1019 10 16.0934 0.01 0.254
10:55 pm 22:55 Cloudy with Rain 56 13.4 53 11.6 89 89 SSE 22 35 30.08 1019 7 11.26538 0.05 1.27
11:15 pm 23:15 Windy with Storms Likely 56 13.4 53 11.7 90 90 S 24 39 30.12 1020 7 11.26538 0.02 0.508
11:35 pm 23:35 Cloudy with Light Thunderstorms 56 13.5 52 11.2 86 86 SSE 15 24 30.14 1021 7 11.26538 0.05 1.27
11:55 pm 23:55 Cloudy with Light Thunderstorms 56 13.2 52 11 87 87 SSE 15 24 30.13 1020 10 16.0934 0.08 2.032

Powered by AerisWeather